Afton Municipal Airport, WY

3:07 PM MST on December 08, 2019 (GMT -0700)
Afton Municipal

Weather History for KAFO - November, 2019

Change the Weather History Date:

Thursday, November 14, 2019

  Actual Average Record
Temperature  
Mean Temperature 35 °F -  
Max Temperature 51 °F 40 °F 59 °F (2016)
Min Temperature 19 °F 16 °F 12 °F (2018)
Degree Days  
Heating Degree Days 30    
Moisture  
Dew Point 25 °F    
Average Humidity 79    
Maximum Humidity 100    
Minimum Humidity 44    
Precipitation  
Precipitation 0.00 in - - ()
Sea Level Pressure  
Sea Level Pressure 30.24 in    
Wind  
Wind Speed 1 mph ()    
Max Wind Speed 5 mph    
Max Gust Speed -    
Visibility 10.0 miles    
Events      
Averages and records for this station are not official NWS values.
T = Trace of Precipitation, MM = Missing Value Source: Averaged Metar Reports

Daily Weather History Graph

Daily Weather History Graph

Search for Another Location

Airport or City:

Astronomy

Nov. 14, 2019 Rise Set
Actual Time 7:13 AM MST 5:01 PM MST
Civil Twilight 6:43 AM MST 5:32 PM MST
Nautical Twilight 6:09 AM MST 6:06 PM MST
Astronomical Twilight 5:36 AM MST 6:39 PM MST
Moon 6:48 PM MST (11/14) 9:14 AM MST (11/14)
Length of Visible Light 10h 48m
Length of Day
9h 47m
Waning Gibbous, 95% of the Moon is Illuminated
Nov 14
Waning Gibbous
Nov 19
Last Quarter
Nov 26
New
Dec 3
First Quarter
Dec 11
Full

Hourly Weather History & Observations

Time (MST) Temp. Windchill Dew Point Humidity Pressure Visibility Wind Dir Wind Speed Gust Speed Precip Events Conditions
12:15 AM 24.8 °F - 23.0 °F 93% 30.23 in 10.0 mi Calm Calm - N/A   Clear
12:35 AM 24.8 °F - 23.0 °F 93% 30.23 in 10.0 mi Calm Calm - N/A   Clear
12:55 AM 23.0 °F 18.4 °F 21.2 °F 93% 30.23 in 10.0 mi SE 3.5 mph - N/A   Clear
1:15 AM 24.8 °F - 23.0 °F 93% 30.24 in 10.0 mi Calm Calm - N/A   Clear
1:35 AM 24.8 °F - 21.2 °F 86% 30.24 in 10.0 mi North - - N/A   Clear
1:55 AM 23.0 °F - 21.2 °F 93% 30.24 in 10.0 mi Calm Calm - N/A   Clear
2:15 AM 24.8 °F - 23.0 °F 93% 30.24 in 10.0 mi Calm Calm - N/A   Clear
2:35 AM 21.2 °F - 19.4 °F 93% 30.25 in 10.0 mi North - - N/A   Clear
2:55 AM 23.0 °F - 21.2 °F 93% 30.26 in 10.0 mi North - - N/A   Clear
3:15 AM 21.2 °F - 19.4 °F 93% 30.25 in 10.0 mi North - - N/A   Clear
3:35 AM 21.2 °F - 19.4 °F 93% 30.25 in 10.0 mi Calm Calm - N/A   Clear
3:55 AM 21.2 °F - 19.4 °F 93% 30.25 in 10.0 mi Calm Calm - N/A   Clear
4:15 AM 21.2 °F - 19.4 °F 93% 30.25 in 10.0 mi Calm Calm - N/A   Clear
4:35 AM 21.2 °F - 19.4 °F 93% 30.25 in 10.0 mi Calm Calm - N/A   Clear
4:55 AM 19.4 °F - 19.4 °F 100% 30.26 in 10.0 mi Calm Calm - N/A   Clear
5:15 AM 19.4 °F - 17.6 °F 93% 30.26 in 10.0 mi Calm Calm - N/A   Clear
5:35 AM 21.2 °F - 19.4 °F 93% 30.27 in 10.0 mi Calm Calm - N/A   Clear
5:55 AM 21.2 °F - 19.4 °F 93% 30.27 in 10.0 mi Calm Calm - N/A   Clear
6:35 AM 19.4 °F 14.3 °F 17.6 °F 93% 30.27 in 10.0 mi ESE 3.5 mph - N/A   Clear
6:55 AM 19.4 °F - 17.6 °F 93% 30.28 in 10.0 mi Calm Calm - N/A   Clear
7:15 AM 19.4 °F - 17.6 °F 93% 30.28 in 10.0 mi Calm Calm - N/A   Clear
7:35 AM 19.4 °F - 17.6 °F 93% 30.28 in 10.0 mi Calm Calm - N/A   Clear
7:55 AM 19.4 °F - 17.6 °F 93% 30.29 in 10.0 mi Calm Calm - N/A   Clear
8:15 AM 21.2 °F - 19.4 °F 93% 30.29 in 10.0 mi Calm Calm - N/A   Clear
8:35 AM 24.8 °F - 23.0 °F 93% 30.29 in 10.0 mi Calm Calm - N/A   Clear
8:55 AM 28.4 °F - 23.0 °F 80% 30.29 in 10.0 mi Calm Calm - N/A   Clear
9:15 AM 28.4 °F - 23.0 °F 80% 30.29 in 10.0 mi Calm Calm - N/A   Clear
9:35 AM 30.2 °F - 26.6 °F 86% 30.29 in 10.0 mi Calm Calm - N/A   Clear
9:55 AM 32.0 °F - 26.6 °F 80% 30.29 in 10.0 mi Calm Calm - N/A   Clear
10:15 AM 32.0 °F - 28.4 °F 87% 30.29 in 10.0 mi Calm Calm - N/A   Clear
10:35 AM 33.8 °F - 28.4 °F 81% 30.28 in 10.0 mi Calm Calm - N/A   Clear
10:55 AM 35.6 °F - 28.4 °F 75% 30.29 in 10.0 mi Calm Calm - N/A   Clear
11:15 AM 37.4 °F - 28.4 °F 70% 30.28 in 10.0 mi Calm Calm - N/A   Clear
11:35 AM 39.2 °F - 28.4 °F 65% 30.28 in 10.0 mi Calm Calm - N/A   Clear
11:55 AM 41.0 °F - 28.4 °F 61% 30.26 in 10.0 mi Calm Calm - N/A   Clear
12:15 PM 42.8 °F 41.1 °F 28.4 °F 57% 30.25 in 10.0 mi NW 3.5 mph - N/A   Clear
12:35 PM 42.8 °F - 28.4 °F 57% 30.24 in 10.0 mi Calm Calm - N/A   Clear
12:55 PM 44.6 °F 43.1 °F 28.4 °F 53% 30.23 in 10.0 mi NW 3.5 mph - N/A   Clear
1:15 PM 44.6 °F 43.1 °F 28.4 °F 53% 30.23 in 10.0 mi NNW 3.5 mph - N/A   Clear
1:35 PM 46.4 °F 45.2 °F 30.2 °F 53% 30.22 in 10.0 mi NNE 3.5 mph - N/A   Clear
1:55 PM 50.0 °F - 30.2 °F 47% 30.22 in 10.0 mi NW 4.6 mph - N/A   Clear
2:35 PM 50.0 °F - 30.2 °F 47% 30.20 in 10.0 mi Calm Calm - N/A   Clear
2:55 PM 51.8 °F - 30.2 °F 44% 30.21 in 10.0 mi Calm Calm - N/A   Clear
3:15 PM 50.0 °F - 30.2 °F 47% 30.20 in 10.0 mi Calm Calm - N/A   Clear
3:35 PM 50.0 °F - 30.2 °F 47% 30.20 in 10.0 mi Calm Calm - N/A   Clear
3:55 PM 50.0 °F - 30.2 °F 47% 30.19 in 10.0 mi Calm Calm - N/A   Clear
4:15 PM 48.2 °F - 30.2 °F 50% 30.20 in 10.0 mi Calm Calm - N/A   Clear
4:55 PM 39.2 °F - 30.2 °F 70% 30.20 in 10.0 mi Calm Calm - N/A   Clear
5:15 PM 37.4 °F - 30.2 °F 75% 30.20 in 10.0 mi Calm Calm - N/A   Clear
5:35 PM 39.2 °F - 28.4 °F 65% 30.20 in 10.0 mi Calm Calm - N/A   Clear
5:55 PM 37.4 °F 33.8 °F 28.4 °F 70% 30.21 in 10.0 mi South 4.6 mph - N/A   Clear
6:15 PM 37.4 °F 34.9 °F 28.4 °F 70% 30.22 in 10.0 mi South 3.5 mph - N/A   Clear
6:35 PM 35.6 °F 31.7 °F 28.4 °F 75% 30.22 in 10.0 mi SSE 4.6 mph - N/A   Clear
7:15 PM 32.0 °F - 28.4 °F 87% 30.22 in 10.0 mi Calm Calm - N/A   Clear
7:35 PM 33.8 °F - 28.4 °F 81% 30.22 in 10.0 mi Calm Calm - N/A   Clear
7:55 PM 33.8 °F 29.6 °F 28.4 °F 81% 30.21 in 10.0 mi SW 4.6 mph - N/A   Scattered Clouds
8:15 PM 32.0 °F - 26.6 °F 80% 30.21 in 10.0 mi Calm Calm - N/A   Clear
8:35 PM 32.0 °F - 26.6 °F 80% 30.21 in 10.0 mi Calm Calm - N/A   Clear
8:55 PM 32.0 °F 28.7 °F 26.6 °F 80% 30.22 in 10.0 mi SSW 3.5 mph - N/A   Clear
9:15 PM 30.2 °F - 26.6 °F 86% 30.23 in 10.0 mi Calm Calm - N/A   Scattered Clouds
9:35 PM 30.2 °F - 26.6 °F 86% 30.23 in 10.0 mi Calm Calm - N/A   Mostly Cloudy
9:55 PM 30.2 °F - 24.8 °F 80% 30.23 in 10.0 mi Calm Calm - N/A   Scattered Clouds
10:15 PM 30.2 °F - 24.8 °F 80% 30.23 in 10.0 mi Calm Calm - N/A   Clear
10:35 PM 28.4 °F - 24.8 °F 86% 30.23 in 10.0 mi Calm Calm - N/A   Clear
10:55 PM 28.4 °F - 24.8 °F 86% 30.23 in 10.0 mi Calm Calm - N/A   Clear
11:55 PM 30.2 °F - 26.6 °F 86% 30.22 in 10.0 mi Calm Calm - N/A   Scattered Clouds